• în Republica Moldova
  • Lista ţărilor
  • Pe 7 zile
  • Temperatura apei
  • Hartă satelitară
  • Meteo pe hartă
  • Widget-uri
  • user-avatar
    Intrare

    Meteo pe oră la Uige

    Astăzi, 23 Octombrie, Luni

    Timp Temperatura Precipitaţii Vânt Presiune Umiditate
    00:00 +21°C° 0 mm 0 m/s 691 mmHg 80%
    01:00 +22°C° 0 mm 1 m/s 691 mmHg 82%
    02:00 +20°C° 0 mm 0 m/s 691 mmHg 82%
    03:00 +20°C° 0 mm 0 m/s 691 mmHg 83%
    04:00 +20°C° 0 mm 0 m/s 690 mmHg 83%
    05:00 +21°C° 0 mm 0 m/s 691 mmHg 80%
    06:00 +21°C° 0 mm 0 m/s 691 mmHg 76%
    07:00 +23°C° 0 mm 0 m/s 692 mmHg 69%
    08:00 +26°C° 0 mm 0 m/s 692 mmHg 60%
    09:00 +31°C° 0 mm 1 m/s 692 mmHg 50%
    10:00 +33°C° 0 mm 1 m/s 693 mmHg 41%
    11:00 +35°C° 0 mm 1 m/s 692 mmHg 38%
    12:00 +36°C° 0 mm 1 m/s 692 mmHg 35%
    13:00 +38°C° 0 mm 2 m/s 691 mmHg 32%
    14:00 +35°C° 0 mm 1 m/s 690 mmHg 37%
    15:00 +33°C° 0 mm 1 m/s 690 mmHg 43%
    16:00 +32°C° 0 mm 1 m/s 689 mmHg 48%
    17:00 +30°C° 0,2 mm 1 m/s 689 mmHg 55%
    18:00 +28°C° 0,2 mm 1 m/s 689 mmHg 62%
    19:00 +26°C° 0,2 mm 1 m/s 689 mmHg 69%
    20:00 +26°C° 0,3 mm 1 m/s 690 mmHg 75%
    21:00 +25°C° 0,3 mm 1 m/s 690 mmHg 80%
    22:00 +24°C° 0,3 mm 1 m/s 691 mmHg 86%
    23:00 +24°C° 0,7 mm 1 m/s 691 mmHg 89%

    Mâine, 24 Octombrie, Marţi

    Timp Temperatura Precipitaţii Vânt Presiune Umiditate
    00:00 +24°C° 0,7 mm 1 m/s 691 mmHg 91%
    01:00 +23°C° 0,7 mm 1 m/s 690 mmHg 94%
    02:00 +23°C° 0,1 mm 1 m/s 690 mmHg 94%
    03:00 +23°C° 0,1 mm 1 m/s 690 mmHg 95%
    04:00 +23°C° 0,1 mm 1 m/s 690 mmHg 95%
    05:00 +23°C° 0,1 mm 1 m/s 690 mmHg 94%
    06:00 +23°C° 0,1 mm 1 m/s 691 mmHg 93%
    07:00 +23°C° 0,1 mm 1 m/s 691 mmHg 93%
    08:00 +25°C° 0 mm 1 m/s 692 mmHg 84%
    09:00 +27°C° 0 mm 1 m/s 692 mmHg 74%
    10:00 +29°C° 0 mm 1 m/s 692 mmHg 65%
    11:00 +30°C° 0,1 mm 1 m/s 692 mmHg 62%
    12:00 +31°C° 0,1 mm 1 m/s 691 mmHg 59%
    13:00 +31°C° 0,1 mm 1 m/s 691 mmHg 56%
    14:00 +30°C° 0,6 mm 1 m/s 690 mmHg 62%
    15:00 +29°C° 0,6 mm 1 m/s 690 mmHg 69%
    16:00 +28°C° 0,6 mm 1 m/s 689 mmHg 75%
    17:00 +27°C° 0,5 mm 1 m/s 690 mmHg 81%
    18:00 +25°C° 0,5 mm 1 m/s 690 mmHg 87%
    19:00 +24°C° 0,5 mm 1 m/s 690 mmHg 92%
    20:00 +24°C° 0 mm 1 m/s 691 mmHg 93%
    21:00 +24°C° 0 mm 1 m/s 691 mmHg 94%
    22:00 +23°C° 0 mm 1 m/s 691 mmHg 95%
    23:00 +23°C° 0 mm 1 m/s 691 mmHg 96%

    Poimâine, 25 Octombrie, Miercuri

    Timp Temperatura Precipitaţii Vânt Presiune Umiditate
    00:00 +23°C° 0 mm 1 m/s 691 mmHg 96%
    01:00 +23°C° 0 mm 1 m/s 691 mmHg 97%
    02:00 +23°C° 0,1 mm 1 m/s 690 mmHg 96%
    03:00 +23°C° 0,1 mm 2 m/s 690 mmHg 96%
    04:00 +23°C° 0,1 mm 2 m/s 690 mmHg 96%
    05:00 +23°C° 0 mm 2 m/s 690 mmHg 95%
    06:00 +23°C° 0 mm 2 m/s 691 mmHg 94%
    07:00 +23°C° 0 mm 1 m/s 691 mmHg 93%
    08:00 +25°C° 0,2 mm 2 m/s 692 mmHg 83%
    09:00 +27°C° 0,2 mm 2 m/s 692 mmHg 72%
    10:00 +30°C° 0,2 mm 2 m/s 693 mmHg 62%
    11:00 +31°C° 1,2 mm 2 m/s 692 mmHg 60%
    12:00 +32°C° 1,2 mm 1 m/s 692 mmHg 57%
    13:00 +33°C° 1,2 mm 1 m/s 691 mmHg 54%
    14:00 +33°C° 0 mm 1 m/s 690 mmHg 53%
    15:00 +32°C° 0 mm 2 m/s 690 mmHg 52%
    16:00 +32°C° 0 mm 2 m/s 689 mmHg 50%
    17:00 +30°C° 0,5 mm 2 m/s 690 mmHg 60%
    18:00 +28°C° 0,5 mm 2 m/s 690 mmHg 70%
    19:00 +25°C° 0,5 mm 1 m/s 690 mmHg 80%
    20:00 +25°C° 0,1 mm 1 m/s 690 mmHg 83%
    21:00 +24°C° 0,1 mm 1 m/s 691 mmHg 87%
    22:00 +23°C° 0,1 mm 1 m/s 691 mmHg 91%
    23:00 +23°C° 0,2 mm 1 m/s 691 mmHg 92%

    26 Octombrie, Joi

    Timp Temperatura Precipitaţii Vânt Presiune Umiditate
    00:00 +23°C° 0,2 mm 1 m/s 691 mmHg 94%
    01:00 +21°C° 0,2 mm 2 m/s 691 mmHg 96%
    02:00 +22°C° 0,2 mm 1 m/s 691 mmHg 95%
    03:00 +22°C° 0,2 mm 1 m/s 691 mmHg 95%
    04:00 +22°C° 0,2 mm 1 m/s 690 mmHg 94%
    05:00 +22°C° 0,4 mm 1 m/s 691 mmHg 93%
    06:00 +22°C° 0,4 mm 1 m/s 692 mmHg 91%
    07:00 +23°C° 0,4 mm 1 m/s 692 mmHg 90%
    08:00 +24°C° 0,1 mm 1 m/s 693 mmHg 83%
    09:00 +26°C° 0,1 mm 1 m/s 693 mmHg 76%
    10:00 +27°C° 0,1 mm 1 m/s 693 mmHg 70%
    11:00 +29°C° 0,4 mm 1 m/s 692 mmHg 63%
    12:00 +31°C° 0,4 mm 2 m/s 692 mmHg 57%
    13:00 +32°C° 0,4 mm 2 m/s 691 mmHg 51%
    14:00 +32°C° 0,6 mm 2 m/s 690 mmHg 53%
    15:00 +31°C° 0,6 mm 1 m/s 690 mmHg 55%
    16:00 +31°C° 0,6 mm 1 m/s 689 mmHg 56%
    17:00 +29°C° 0,3 mm 1 m/s 690 mmHg 65%
    18:00 +27°C° 0,3 mm 1 m/s 690 mmHg 73%
    19:00 +25°C° 0,3 mm 1 m/s 690 mmHg 81%
    20:00 +24°C° 0,2 mm 1 m/s 690 mmHg 84%
    21:00 +24°C° 0,2 mm 1 m/s 691 mmHg 88%
    22:00 +23°C° 0,2 mm 1 m/s 691 mmHg 91%
    23:00 +23°C° 0,4 mm 1 m/s 691 mmHg 93%

    27 Octombrie, Vineri

    Timp Temperatura Precipitaţii Vânt Presiune Umiditate
    00:00 +22°C° 0,4 mm 1 m/s 690 mmHg 95%
    01:00 +22°C° 0,4 mm 1 m/s 690 mmHg 97%
    02:00 +22°C° 0,2 mm 1 m/s 690 mmHg 97%
    03:00 +21°C° 0,2 mm 1 m/s 690 mmHg 97%
    04:00 +21°C° 0,2 mm 1 m/s 690 mmHg 97%
    05:00 +22°C° 0 mm 1 m/s 690 mmHg 95%
    06:00 +22°C° 0 mm 1 m/s 691 mmHg 92%
    07:00 +22°C° 0 mm 1 m/s 691 mmHg 90%
    08:00 +25°C° 0 mm 1 m/s 692 mmHg 78%
    09:00 +28°C° 0 mm 1 m/s 692 mmHg 66%
    10:00 +31°C° 0 mm 1 m/s 693 mmHg 54%
    11:00 +31°C° 0,3 mm 1 m/s 692 mmHg 51%
    12:00 +32°C° 0,3 mm 2 m/s 691 mmHg 48%
    13:00 +34°C° 0,3 mm 2 m/s 690 mmHg 45%
    14:00 +32°C° 0,3 mm 2 m/s 690 mmHg 48%
    15:00 +32°C° 0,3 mm 2 m/s 689 mmHg 51%
    16:00 +31°C° 0,3 mm 2 m/s 689 mmHg 53%
    17:00 +29°C° 0,2 mm 1 m/s 689 mmHg 59%
    18:00 +28°C° 0,2 mm 1 m/s 689 mmHg 65%
    19:00 +26°C° 0,2 mm 1 m/s 690 mmHg 71%
    20:00 +25°C° 0,6 mm 1 m/s 690 mmHg 76%
    21:00 +24°C° 0,6 mm 1 m/s 691 mmHg 82%
    22:00 +23°C° 0,6 mm 1 m/s 691 mmHg 87%
    23:00 +23°C° 1,3 mm 1 m/s 691 mmHg 90%

    28 Octombrie, Sâmbătă

    Timp Temperatura Precipitaţii Vânt Presiune Umiditate
    00:00 +22°C° 1,3 mm 1 m/s 690 mmHg 93%
    01:00 +22°C° 1,3 mm 1 m/s 690 mmHg 96%
    02:00 +22°C° 0,2 mm 1 m/s 690 mmHg 96%
    03:00 +21°C° 0,2 mm 1 m/s 690 mmHg 96%
    04:00 +21°C° 0,2 mm 1 m/s 690 mmHg 96%
    05:00 +21°C° 0,1 mm 1 m/s 690 mmHg 95%
    06:00 +22°C° 0,1 mm 1 m/s 690 mmHg 94%
    07:00 +22°C° 0,1 mm 1 m/s 691 mmHg 92%
    08:00 +24°C° 0,1 mm 1 m/s 691 mmHg 82%
    09:00 +25°C° 0,1 mm 0 m/s 691 mmHg 72%
    10:00 +27°C° 0,1 mm 0 m/s 692 mmHg 62%
    11:00 +30°C° 0 mm 1 m/s 691 mmHg 57%
    12:00 +31°C° 0 mm 1 m/s 690 mmHg 53%
    13:00 +32°C° 0 mm 2 m/s 689 mmHg 48%
    14:00 +31°C° 0 mm 2 m/s 689 mmHg 49%
    15:00 +31°C° 0 mm 2 m/s 689 mmHg 50%
    16:00 +31°C° 0 mm 2 m/s 688 mmHg 51%
    17:00 +29°C° 0,2 mm 1 m/s 689 mmHg 57%
    18:00 +27°C° 0,2 mm 1 m/s 689 mmHg 64%
    19:00 +26°C° 0,2 mm 1 m/s 689 mmHg 71%
    20:00 +25°C° 0,3 mm 1 m/s 690 mmHg 76%
    21:00 +24°C° 0,3 mm 1 m/s 690 mmHg 80%
    22:00 +23°C° 0,3 mm 1 m/s 690 mmHg 84%
    23:00 +23°C° 0 mm 1 m/s 690 mmHg 86%

    29 Octombrie, Duminică

    Timp Temperatura Precipitaţii Vânt Presiune Umiditate
    00:00 +23°C° 0 mm 1 m/s 689 mmHg 87%
    01:00 +22°C° 0 mm 1 m/s 689 mmHg 89%
    02:00 +22°C° 0,1 mm 1 m/s 689 mmHg 90%
    03:00 +22°C° 0,1 mm 1 m/s 689 mmHg 92%
    04:00 +21°C° 0,1 mm 1 m/s 689 mmHg 93%
    05:00 +22°C° 0,3 mm 1 m/s 690 mmHg 91%
    06:00 +22°C° 0,3 mm 1 m/s 690 mmHg 89%
    07:00 +23°C° 0,3 mm 1 m/s 691 mmHg 87%
    08:00 +24°C° 0,1 mm 1 m/s 691 mmHg 82%
    09:00 +25°C° 0,1 mm 1 m/s 691 mmHg 77%
    10:00 +24°C° 0,1 mm 0 m/s 691 mmHg 72%
    11:00 +27°C° 0,2 mm 1 m/s 690 mmHg 66%
    12:00 +29°C° 0,2 mm 1 m/s 690 mmHg 61%
    13:00 +30°C° 0,2 mm 1 m/s 689 mmHg 55%
    14:00 +30°C° 0,2 mm 1 m/s 689 mmHg 56%
    15:00 +29°C° 0,2 mm 1 m/s 688 mmHg 56%
    16:00 +29°C° 0,2 mm 1 m/s 688 mmHg 57%
    17:00 +27°C° 0,1 mm 1 m/s 688 mmHg 62%
    18:00 +26°C° 0,1 mm 1 m/s 689 mmHg 67%
    19:00 +24°C° 0,1 mm 1 m/s 689 mmHg 72%
    20:00 +24°C° 0,1 mm 1 m/s 689 mmHg 74%
    21:00 +24°C° 0,1 mm 1 m/s 690 mmHg 76%
    22:00 +21°C° 0,1 mm 0 m/s 690 mmHg 78%
    23:00 +21°C° 0,1 mm 0 m/s 690 mmHg 80%
    Arată mai mult